COSMOS 1733

Satellite information

Favourite Embed

Satellite Type and Status

PAYLOADIN ORBIT

Key statistics

Satellite COSMOS 1733 at a glance.

Uptime

14444

Days in orbit

Revolutions

≈ 15.7

Per day

Orbit

LEO

Low Earth Orbit

Inclination

82.5

Latest

Satellite identification and parameters

Extended collection of information and parameters for COSMOS 1733.

Object identification

Identified? True

Debris? False

Object name: COSMOS 1733

International designator: 1986-018A

Object number (NORAD): 16611

Object ID (CCSDS): 16611

Country: COMMONWEALTH OF INDEPENDENT STATES (CIS)

Current information (Y/N): Y

RCS size: LARGE

Orbital parameters

Period: 91.618 minutes

Inclination: 82.4628 deg

SMA: 6732.054 km

Apoapsis: 356.755 km

Periapsis: 351.082 km

RAAN: 268.7009 deg

Eccentricy: 0.00042133

Argument of periapsis: 193.4038 deg

Mean anomaly: 166.7113 deg

Mean motion: 15.71742458 rev/day

Mean motion (dot): 0.00081624 rev/day2

B* drag term: 0.000627465 1/REarth

Two-line elements (TLE)

Creation date: Sept. 6, 2025, 2:09 a.m.

Reference frame: TEME

Reference center: EARTH

Epoch: Sept. 5, 2025, 7:22 p.m. UTC

TLE line 0: 0 COSMOS 1733

TLE line 1: 1 16611U 86018A 25248.80713697 .00081624 00000-0 62747-3 0 9990

TLE line 2: 2 16611 82.4628 268.7009 0004213 193.4038 166.7113 15.71742458166098

Live tracking on map

Real-time ground track for satellite COSMOS 1733.

In-orbit conjunctions

There are no conjunctions computed for COSMOS 1733, at the moment. Check back to stay up to date, as we update our databases every day.

Go to all conjunctions

Associated space launch

Tselina-D satellites provided detailed observation of radio sources detected by the smaller Tselina-O satellites as part of the Tselina ELINT system.

COSMOS 1733 was lifted into orbit during the mission ‘Tsiklon-3 | Tselina-D 54’, on board a Tsiklon-3 space rocket.

The launch took place on Feb. 19, 1986, 11:04 p.m. from 32/1.

For more information about the launch, click the button.

Launch to space Tsiklon-3 | Tselina-D 54
Tsiklon-3 | Tselina-D 54

Agency: N/A

Status: Launch Successful

Launch date: Feb. 19, 1986, 11:04 p.m. UTC

Rocket: Tsiklon-3

Launch pad: 32/1

Location: Plesetsk Cosmodrome, Russian Federation

...

Latest news about this satellite

There are no fresh news available about this satellite. Check back as we update our databases every day.


Newsletter sign-up

Weekly statistics, charts and insights to help you stay on top of the space industry.